When you browse on this site, cookies collect data to enhance your experience and personalize the content and advertising you see.
Visit our Privacy Policy to learn more. By continuing to use the site, you agree to this use of cookies and data.
  • In United Kingdom
  • List of Countries
  • For 7 days
  • Water Temperature
  • Satellite Maps
  • Weather Map
  • Weather Widgets
  • user-avatar
    Login

    Hourly Weather Havana

    Today, 24 April, Wednesday

    Time Temperature Precipitation Wind Pressure Humidity
    00:00 +23°C° 0 mm 5 mps 761 mmHg 71%
    01:00 +22°C° 0 mm 5 mps 761 mmHg 73%
    02:00 +22°C° 0 mm 4 mps 761 mmHg 74%
    03:00 +22°C° 0 mm 4 mps 761 mmHg 74%
    04:00 +21°C° 0 mm 4 mps 761 mmHg 75%
    05:00 +22°C° 0 mm 4 mps 761 mmHg 74%
    06:00 +22°C° 0 mm 4 mps 761 mmHg 73%
    07:00 +22°C° 0 mm 4 mps 761 mmHg 72%
    08:00 +26°C° 0 mm 4 mps 761 mmHg 63%
    09:00 +28°C° 0 mm 4 mps 762 mmHg 53%
    10:00 +30°C° 0 mm 4 mps 762 mmHg 43%
    11:00 +32°C° 0 mm 4 mps 762 mmHg 39%
    12:00 +33°C° 0 mm 4 mps 761 mmHg 36%
    13:00 +34°C° 0 mm 4 mps 761 mmHg 32%
    14:00 +34°C° 0 mm 4 mps 761 mmHg 35%
    15:00 +34°C° 0 mm 5 mps 760 mmHg 37%
    16:00 +34°C° 0 mm 5 mps 760 mmHg 39%
    17:00 +32°C° 0 mm 5 mps 760 mmHg 47%
    18:00 +29°C° 0 mm 6 mps 760 mmHg 55%
    19:00 +28°C° 0 mm 6 mps 760 mmHg 63%
    20:00 +27°C° 0 mm 6 mps 760 mmHg 66%
    21:00 +26°C° 0 mm 6 mps 760 mmHg 68%
    22:00 +26°C° 0 mm 6 mps 761 mmHg 71%
    23:00 +25°C° 0 mm 5 mps 761 mmHg 70%

    Tomorrow, 25 April, Thursday

    Time Temperature Precipitation Wind Pressure Humidity
    00:00 +25°C° 0 mm 5 mps 760 mmHg 70%
    01:00 +25°C° 0 mm 5 mps 760 mmHg 70%
    02:00 +23°C° 0 mm 5 mps 760 mmHg 71%
    03:00 +23°C° 0 mm 5 mps 759 mmHg 73%
    04:00 +23°C° 0 mm 5 mps 759 mmHg 74%
    05:00 +23°C° 0 mm 5 mps 759 mmHg 75%
    06:00 +23°C° 0 mm 5 mps 759 mmHg 76%
    07:00 +23°C° 0 mm 5 mps 760 mmHg 77%
    08:00 +27°C° 0 mm 5 mps 760 mmHg 67%
    09:00 +29°C° 0 mm 4 mps 760 mmHg 57%
    10:00 +33°C° 0 mm 4 mps 761 mmHg 47%
    11:00 +34°C° 0 mm 4 mps 760 mmHg 44%
    12:00 +35°C° 0 mm 3 mps 760 mmHg 40%
    13:00 +36°C° 0 mm 3 mps 760 mmHg 36%
    14:00 +36°C° 0 mm 3 mps 759 mmHg 38%
    15:00 +35°C° 0 mm 3 mps 759 mmHg 39%
    16:00 +35°C° 0 mm 3 mps 759 mmHg 40%
    17:00 +33°C° 0 mm 3 mps 759 mmHg 48%
    18:00 +30°C° 0 mm 3 mps 759 mmHg 55%
    19:00 +29°C° 0 mm 2 mps 759 mmHg 62%
    20:00 +28°C° 0 mm 2 mps 760 mmHg 68%
    21:00 +27°C° 0 mm 2 mps 760 mmHg 74%
    22:00 +26°C° 0 mm 2 mps 761 mmHg 80%
    23:00 +26°C° 0 mm 2 mps 761 mmHg 82%

    Day after tomorrow, 26 April, Friday

    Time Temperature Precipitation Wind Pressure Humidity
    00:00 +26°C° 0 mm 2 mps 760 mmHg 84%
    01:00 +26°C° 0 mm 2 mps 760 mmHg 86%
    02:00 +25°C° 0 mm 3 mps 760 mmHg 88%
    03:00 +25°C° 0 mm 3 mps 759 mmHg 90%
    04:00 +25°C° 0 mm 4 mps 758 mmHg 91%
    05:00 +25°C° 0 mm 4 mps 759 mmHg 90%
    06:00 +26°C° 0 mm 4 mps 759 mmHg 89%
    07:00 +26°C° 0 mm 4 mps 759 mmHg 88%
    08:00 +28°C° 0 mm 4 mps 760 mmHg 77%
    09:00 +30°C° 0 mm 5 mps 760 mmHg 67%
    10:00 +33°C° 0 mm 5 mps 760 mmHg 56%
    11:00 +34°C° 0 mm 5 mps 760 mmHg 50%
    12:00 +35°C° 0 mm 6 mps 760 mmHg 44%
    13:00 +36°C° 0 mm 6 mps 759 mmHg 37%
    14:00 +36°C° 0 mm 6 mps 759 mmHg 38%
    15:00 +36°C° 0 mm 6 mps 758 mmHg 39%
    16:00 +36°C° 0 mm 5 mps 758 mmHg 40%
    17:00 +34°C° 0.1 mm 5 mps 758 mmHg 48%
    18:00 +32°C° 0.1 mm 5 mps 758 mmHg 56%
    19:00 +29°C° 0.1 mm 5 mps 759 mmHg 64%
    20:00 +29°C° 0.1 mm 4 mps 759 mmHg 68%
    21:00 +28°C° 0.1 mm 4 mps 760 mmHg 73%
    22:00 +28°C° 0.1 mm 3 mps 760 mmHg 77%
    23:00 +27°C° 0.1 mm 3 mps 760 mmHg 79%

    27 April, Saturday

    Time Temperature Precipitation Wind Pressure Humidity
    00:00 +27°C° 0.1 mm 3 mps 760 mmHg 81%
    01:00 +27°C° 0.1 mm 3 mps 760 mmHg 83%
    02:00 +26°C° 0.1 mm 2 mps 759 mmHg 85%
    03:00 +26°C° 0.1 mm 2 mps 759 mmHg 86%
    04:00 +26°C° 0.1 mm 2 mps 759 mmHg 88%
    05:00 +26°C° 0 mm 2 mps 759 mmHg 86%
    06:00 +27°C° 0 mm 1 mps 759 mmHg 84%
    07:00 +27°C° 0 mm 1 mps 759 mmHg 81%
    08:00 +29°C° 0 mm 1 mps 760 mmHg 73%
    09:00 +30°C° 0 mm 1 mps 760 mmHg 65%
    10:00 +32°C° 0 mm 2 mps 761 mmHg 57%
    11:00 +34°C° 0.1 mm 2 mps 760 mmHg 55%
    12:00 +34°C° 0.1 mm 3 mps 760 mmHg 53%
    13:00 +34°C° 0.1 mm 3 mps 760 mmHg 51%
    14:00 +34°C° 1 mm 3 mps 759 mmHg 53%
    15:00 +33°C° 1 mm 4 mps 759 mmHg 55%
    16:00 +33°C° 1 mm 4 mps 758 mmHg 57%
    17:00 +32°C° 0.9 mm 4 mps 759 mmHg 63%
    18:00 +30°C° 0.9 mm 4 mps 759 mmHg 69%
    19:00 +28°C° 0.9 mm 3 mps 759 mmHg 76%
    20:00 +28°C° 0.8 mm 3 mps 760 mmHg 77%
    21:00 +27°C° 0.8 mm 3 mps 760 mmHg 79%
    22:00 +27°C° 0.8 mm 3 mps 760 mmHg 80%
    23:00 +27°C° 0 mm 3 mps 760 mmHg 81%

    28 April, Sunday

    Time Temperature Precipitation Wind Pressure Humidity
    00:00 +27°C° 0 mm 3 mps 760 mmHg 81%
    01:00 +26°C° 0 mm 2 mps 760 mmHg 82%
    02:00 +26°C° 0 mm 2 mps 760 mmHg 82%
    03:00 +26°C° 0 mm 2 mps 759 mmHg 82%
    04:00 +26°C° 0 mm 2 mps 759 mmHg 82%
    05:00 +26°C° 0 mm 2 mps 760 mmHg 81%
    06:00 +26°C° 0 mm 3 mps 760 mmHg 79%
    07:00 +27°C° 0 mm 3 mps 760 mmHg 78%
    08:00 +28°C° 0 mm 3 mps 761 mmHg 70%
    09:00 +30°C° 0 mm 3 mps 761 mmHg 62%
    10:00 +33°C° 0 mm 3 mps 761 mmHg 54%
    11:00 +34°C° 0.4 mm 3 mps 761 mmHg 51%
    12:00 +35°C° 0.4 mm 3 mps 761 mmHg 47%
    13:00 +35°C° 0.4 mm 4 mps 760 mmHg 44%
    14:00 +35°C° 0.9 mm 4 mps 760 mmHg 47%
    15:00 +34°C° 0.9 mm 5 mps 760 mmHg 50%
    16:00 +34°C° 0.9 mm 5 mps 759 mmHg 53%
    17:00 +32°C° 0.6 mm 5 mps 760 mmHg 59%
    18:00 +30°C° 0.6 mm 5 mps 760 mmHg 64%
    19:00 +29°C° 0.6 mm 5 mps 760 mmHg 69%
    20:00 +28°C° 0.7 mm 4 mps 761 mmHg 71%
    21:00 +28°C° 0.7 mm 4 mps 761 mmHg 73%
    22:00 +27°C° 0.7 mm 3 mps 762 mmHg 75%
    23:00 +27°C° 0 mm 3 mps 761 mmHg 76%

    29 April, Monday

    Time Temperature Precipitation Wind Pressure Humidity
    00:00 +27°C° 0 mm 3 mps 761 mmHg 77%
    01:00 +26°C° 0 mm 4 mps 761 mmHg 77%
    02:00 +26°C° 0 mm 4 mps 761 mmHg 77%
    03:00 +26°C° 0 mm 4 mps 761 mmHg 78%
    04:00 +26°C° 0 mm 4 mps 761 mmHg 78%
    05:00 +26°C° 0 mm 4 mps 761 mmHg 78%
    06:00 +26°C° 0 mm 4 mps 761 mmHg 78%
    07:00 +27°C° 0 mm 4 mps 762 mmHg 78%
    08:00 +28°C° 0 mm 4 mps 762 mmHg 68%
    09:00 +30°C° 0 mm 4 mps 762 mmHg 59%
    10:00 +33°C° 0 mm 5 mps 763 mmHg 50%
    11:00 +34°C° 0 mm 5 mps 762 mmHg 48%
    12:00 +35°C° 0 mm 5 mps 762 mmHg 45%
    13:00 +36°C° 0 mm 6 mps 762 mmHg 43%
    14:00 +35°C° 0 mm 6 mps 761 mmHg 45%
    15:00 +34°C° 0 mm 6 mps 761 mmHg 48%
    16:00 +34°C° 0 mm 7 mps 761 mmHg 50%
    17:00 +32°C° 0 mm 7 mps 761 mmHg 56%
    18:00 +30°C° 0 mm 7 mps 761 mmHg 62%
    19:00 +29°C° 0 mm 7 mps 762 mmHg 69%
    20:00 +28°C° 0 mm 7 mps 762 mmHg 72%
    21:00 +28°C° 0 mm 6 mps 763 mmHg 75%
    22:00 +27°C° 0 mm 6 mps 763 mmHg 78%
    23:00 +27°C° 0 mm 6 mps 763 mmHg 79%
    Show more